Wind_Speed
39 39 38 39 39 39 39 39 40 40 39 40 40 40 40 40 39 40 40 41 42 40 40 41 41 41 40 39 37 36 36 36 37 37 37 36 36 35 35 34 35 36 37 37 38 39 40 40 40 40 40 40 42 43 43 43 42 43 44 45 46 47 47
36 36 35 35 35 36 36 37 37 37 37 37 38 38 39 38 38 38 39 39 39 39 39 40 40 39 37 36 35 35 35 34 35 35 35 35 35 35 34 33 33 33 33 34 35 36 37 37 37 38 39 40 40 41 42 42 43 42 42 42 42 43 45
32 32 32 32 32 32 33 34 34 34 35 35 35 36 36 36 35 35 36 35 35 35 35 37 37 35 34 33 35 37 36 35 34 33 33 32 32 32 33 32 32 32 32 34 35 35 35 34 34 34 35 37 38 38 39 40 42 44 44 44 43 43 43
30 30 30 30 30 30 30 31 31 32 32 33 33 33 34 34 34 33 33 33 32 31 32 32 33 32 31 30 32 35 35 34 32 31 30 30 30 30 30 30 30 30 31 33 34 34 34 35 35 34 35 35 36 36 36 36 38 40 42 44 44 44 44
29 30 30 30 30 29 29 29 30 30 30 31 31 32 32 33 33 33 32 32 32 31 31 31 31 32 31 30 30 31 32 32 30 28 28 28 28 29 29 28 28 29 30 31 32 32 32 33 34 33 34 35 35 35 35 35 35 36 37 39 40 40 40
30 29 30 30 30 30 30 30 30 30 30 30 30 30 31 31 32 32 32 32 31 31 30 30 30 31 31 30 30 31 31 31 30 28 27 27 27 27 28 28 28 28 29 30 31 32 32 33 34 33 32 32 33 33 33 33 34 34 34 34 35 35 35
29 29 30 30 30 31 31 31 31 31 31 31 30 30 30 30 31 31 31 31 31 30 30 30 30 30 30 31 31 32 32 32 32 31 30 29 28 28 28 29 29 29 29 31 32 33 33 34 35 35 33 32 32 33 33 32 32 33 33 33 34 34 33
30 30 30 30 30 31 32 32 32 32 32 33 32 31 30 30 30 31 31 32 32 31 31 31 31 31 31 32 32 33 33 34 35 35 34 34 32 31 30 30 30 30 30 31 32 34 35 35 36 36 35 34 34 34 34 33 33 33 33 34 34 35 33
31 31 31 31 31 32 32 33 33 33 34 35 35 33 31 30 30 31 31 31 32 33 32 33 33 33 33 33 34 34 35 35 36 36 36 36 35 35 34 33 32 32 31 32 33 34 35 35 36 37 37 36 35 35 35 35 35 35 34 34 34 36 35
33 33 33 33 33 33 34 34 35 35 35 36 37 36 33 31 31 31 31 32 33 33 33 34 34 35 35 35 36 36 36 36 37 37 37 37 36 36 36 35 35 34 34 34 34 36 36 36 37 38 37 36 36 35 36 36 36 36 36 35 35 37 37
36 36 36 35 35 35 35 36 36 37 37 37 39 40 37 34 32 32 32 33 34 34 35 35 35 36 36 37 37 37 37 38 38 38 38 38 37 37 37 36 36 36 36 35 36 37 37 37 37 39 39 38 37 37 37 37 37 37 37 37 37 37 38
38 38 38 38 37 37 37 37 37 38 39 39 40 42 42 37 34 33 33 33 34 35 36 36 36 36 37 38 38 38 38 38 38 38 37 37 37 37 37 37 36 36 36 36 36 37 37 37 37 38 39 39 38 38 38 38 39 39 39 38 38 38 38
41 40 40 39 39 39 39 39 39 39 40 40 40 43 45 41 36 34 35 35 35 36 37 37 36 36 37 38 39 39 38 38 38 37 37 36 36 37 37 37 37 37 36 36 36 36 37 37 37 37 39 39 38 37 37 37 38 38 39 39 39 39 39
43 42 42 41 41 41 41 41 41 41 41 42 42 43 47 45 40 37 37 37 37 37 38 39 38 38 38 38 39 40 39 39 39 38 38 37 36 37 37 38 37 38 37 37 37 37 37 37 37 38 38 39 39 38 38 38 37 37 38 39 38 39 39
44 44 43 42 42 42 41 41 43 42 42 43 43 44 47 47 43 40 39 38 38 38 39 40 40 39 39 40 40 41 41 41 41 40 40 39 38 38 39 39 39 39 39 39 39 38 38 38 39 39 40 40 41 41 41 40 40 39 40 40 40 39 39
46 45 44 44 43 43 42 42 43 44 44 44 44 45 47 48 46 44 42 40 39 40 40 41 42 42 41 41 41 42 42 43 43 42 42 41 41 40 40 41 41 41 41 42 42 41 41 41 41 41 42 42 43 43 43 43 43 43 43 43 43 42 42
47 46 46 46 45 44 44 42 42 44 44 44 45 47 47 48 48 46 44 42 41 41 41 42 43 44 43 42 42 43 44 44 45 45 44 44 43 43 42 42 42 42 43 43 43 44 44 44 44 44 44 44 44 45 45 45 45 45 45 45 45 45 45
47 46 46 46 46 45 45 43 42 43 44 44 45 47 48 49 49 48 47 44 42 42 43 43 43 45 45 44 43 43 44 45 46 47 47 46 46 45 45 44 44 44 44 44 45 46 47 47 47 47 47 47 47 47 47 47 47 47 47 47 47 48 47
44 44 44 44 44 44 44 43 42 41 43 43 44 45 47 48 49 48 48 47 43 41 42 43 44 45 46 46 45 44 44 46 47 48 49 49 48 47 46 46 45 45 45 46 46 47 48 49 49 50 50 50 50 50 50 50 50 50 50 50 50 50 50
41 41 41 42 42 42 42 42 41 40 40 42 42 44 46 47 47 47 48 47 44 41 40 42 43 44 45 46 45 44 44 45 46 49 51 50 48 49 49 48 46 46 47 47 48 48 48 49 50 51 52 52 52 52 53 53 53 53 53 53 53 53 53
37 38 38 38 39 40 40 40 40 39 38 39 40 42 44 45 45 46 47 47 45 42 39 38 40 42 43 44 44 43 43 44 46 49 50 49 49 50 51 49 48 47 47 48 48 48 48 49 50 51 52 53 54 54 54 54 55 55 56 56 56 55 55
36 36 36 36 37 37 38 38 39 38 38 38 38 40 42 43 44 44 45 46 46 44 41 38 37 38 40 42 43 42 42 43 44 46 47 48 49 50 50 50 50 49 48 48 48 48 48 48 49 50 51 52 53 54 54 54 55 56 57 57 57 58 58
37 36 36 35 35 36 36 37 37 38 38 38 38 38 40 41 42 43 44 45 45 45 44 41 39 37 37 39 40 41 42 42 42 43 44 46 48 49 49 50 50 50 49 48 47 47 47 47 48 49 50 51 52 52 52 53 54 56 57 57 57 58 58
37 36 36 35 34 34 35 35 36 36 37 38 38 38 39 40 40 41 42 44 44 45 44 43 41 39 38 38 39 40 40 41 41 41 42 43 44 46 47 48 49 49 50 49 48 47 46 46 47 47 48 49 50 50 51 52 53 54 55 56 56 57 58
36 36 35 35 34 33 33 33 34 34 35 36 36 36 37 38 39 39 40 41 42 43 43 43 41 39 38 38 38 39 39 39 39 40 40 40 41 42 43 44 45 46 47 48 48 47 47 46 46 46 47 47 48 49 49 50 51 52 53 54 54 54 55
36 35 35 35 34 33 33 32 33 33 34 35 35 35 35 36 37 38 39 40 41 41 42 42 41 40 40 39 39 39 39 39 39 39 39 40 40 41 42 42 43 44 45 45 46 46 46 45 45 45 45 46 47 47 47 48 49 50 51 51 52 52 53
36 36 36 35 35 34 33 33 33 33 34 35 35 35 35 36 36 37 38 39 40 41 42 42 42 41 42 42 41 41 40 40 41 40 40 41 41 42 42 43 44 44 45 45 45 45 45 45 44 44 44 45 45 46 46 47 47 48 48 48 50 51 51
37 36 36 36 35 34 34 33 32 34 35 36 36 36 36 36 36 37 38 39 40 41 42 42 42 41 42 43 43 43 43 42 42 43 43 43 43 43 44 44 45 45 46 46 47 46 46 45 45 45 44 44 44 44 45 45 46 46 47 47 48 49 49
37 36 37 36 35 35 34 32 31 33 34 35 36 36 36 35 36 36 37 38 39 41 41 41 41 41 41 42 43 44 44 43 43 43 44 44 44 44 44 45 45 46 46 47 47 47 47 47 46 46 45 44 44 44 44 44 45 45 46 46 47 47 47
36 36 37 37 36 35 35 33 32 32 34 35 35 35 36 35 35 36 36 37 38 39 39 39 39 39 40 40 41 42 42 42 42 42 43 43 43 44 44 44 45 45 46 46 46 46 46 47 47 46 46 45 44 44 43 43 44 44 44 45 45 46 46
35 35 36 37 37 36 35 35 34 33 33 34 34 35 35 35 35 35 35 36 37 38 37 37 37 38 38 38 39 40 40 40 40 40 41 41 41 41 42 42 43 44 44 44 45 45 45 45 46 46 45 45 44 44 43 42 43 43 43 43 44 44 44
34 34 35 36 37 37 36 35 35 34 34 33 34 34 35 35 35 35 35 36 37 37 36 36 37 37 37 37 38 38 38 39 38 38 39 39 39 39 39 40 41 42 42 42 43 43 43 43 44 44 44 44 43 43 43 42 41 42 42 42 42 43 43
32 33 33 34 34 35 35 35 35 35 34 34 34 34 34 35 35 34 35 36 37 37 36 36 36 37 36 36 37 37 37 38 37 37 37 38 38 38 37 38 39 40 40 40 40 41 41 41 42 42 43 42 42 42 42 41 41 41 41 41 41 41 42
29 31 32 32 32 33 34 34 34 34 34 34 34 33 34 35 34 33 34 35 36 36 36 36 36 36 36 36 36 37 37 37 37 37 37 37 37 37 37 37 37 38 38 38 38 39 39 39 40 41 41 41 40 40 40 40 40 40 40 40 40 40 40
27 29 30 30 31 32 33 33 34 33 33 33 33 33 34 34 33 33 33 34 36 36 36 36 36 35 35 36 36 36 36 36 36 36 36 36 36 36 36 36 36 36 37 37 37 37 37 38 38 39 39 39 39 39 38 38 38 38 38 38 39 39 39
27 28 28 29 30 31 32 32 32 32 32 32 32 33 34 34 33 32 32 33 34 35 36 36 36 35 35 35 35 35 35 36 36 36 36 36 36 36 36 36 36 36 36 36 36 36 36 36 36 37 37 37 37 37 37 36 37 37 37 37 37 38 37
Wind_Direction
282 280 279 278 276 275 274 272 271 269 266 264 262 260 258 257 256 258 259 256 251 248 249 250 249 247 246 244 244 244 243 244 244 244 245 246 246 246 247 247 247 248 250 252 253 253 253 252 252 253 253 254 255 255 255 255 256 256 255 255 254 253 253
284 282 281 279 278 276 275 273 271 270 268 266 264 262 261 259 257 255 252 249 247 248 249 247 243 240 238 238 241 242 241 240 240 240 241 242 242 242 242 242 243 244 247 249 251 251 251 250 250 251 251 252 253 254 254 253 253 253 254 254 253 253 252
285 283 282 280 279 277 276 274 272 270 269 267 265 263 261 259 257 254 251 249 247 247 247 245 243 241 239 238 241 243 241 239 238 237 237 238 238 239 240 240 241 242 244 246 247 248 249 249 249 250 250 251 251 252 253 253 252 253 254 255 256 256 255
286 285 283 281 279 277 276 274 272 270 268 267 265 263 261 259 257 255 254 253 251 249 249 248 249 248 247 244 242 243 243 241 240 238 237 238 238 240 241 241 241 241 242 244 245 246 248 249 250 251 252 252 253 253 253 254 254 255 256 257 258 258 258
288 287 285 283 281 278 277 275 274 272 269 267 266 265 263 261 260 259 258 258 257 256 254 254 254 254 255 253 250 249 249 248 246 244 242 241 240 241 243 244 245 245 245 246 246 246 248 249 250 252 253 254 254 255 255 256 256 256 256 256 256 257 257
289 288 287 286 284 281 279 277 276 274 272 270 268 266 266 265 264 263 262 262 261 261 259 257 257 257 258 258 258 257 256 256 256 256 254 252 249 246 245 246 248 249 249 249 250 250 250 251 250 251 252 253 253 254 255 256 257 257 257 256 256 256 256
291 290 288 287 286 284 282 280 278 277 275 273 271 269 268 268 267 266 265 265 264 263 263 261 260 260 260 260 261 261 262 263 265 266 266 264 261 257 253 251 250 251 251 252 252 253 253 254 253 252 253 253 253 254 254 255 256 257 257 257 257 257 257
291 290 290 288 287 286 285 283 281 279 277 275 273 271 270 270 269 269 268 268 267 265 265 264 263 261 261 261 262 262 263 265 267 269 270 270 269 266 263 260 257 255 254 254 254 254 254 255 255 254 255 255 255 255 255 255 255 256 257 258 258 258 259
292 291 290 289 289 288 287 286 284 282 281 278 274 272 271 271 271 270 270 271 270 269 268 267 266 265 263 263 263 264 264 265 265 267 268 268 269 268 267 266 264 262 259 257 256 255 255 256 256 256 256 256 255 256 256 256 257 257 257 258 259 258 258
291 290 290 289 289 288 288 287 286 285 284 282 278 274 271 270 270 270 271 272 272 271 271 270 270 269 268 267 266 266 267 267 267 267 267 267 266 266 266 266 265 265 264 261 259 258 257 258 258 258 257 257 256 256 256 256 257 257 258 258 259 259 258
289 289 288 288 287 287 286 287 287 286 286 285 283 279 274 271 270 271 272 273 273 272 272 272 271 271 271 271 270 269 269 269 269 268 268 267 266 265 264 263 263 263 264 263 262 260 259 259 260 260 259 259 259 258 258 258 257 258 258 258 259 260 260
287 287 287 287 286 286 285 285 285 285 285 285 285 283 279 275 273 273 273 274 274 273 272 272 272 272 272 272 271 271 271 270 269 269 268 268 267 267 265 263 262 260 260 261 262 262 261 261 262 262 261 261 261 261 260 260 259 259 259 258 259 259 260
286 286 286 286 286 286 285 284 283 283 283 283 283 283 281 279 277 276 276 275 275 274 274 273 272 272 272 271 272 271 271 271 270 269 269 268 268 268 268 266 265 263 260 259 259 260 261 261 262 262 262 262 262 262 261 261 261 261 261 260 260 259 259
286 286 285 285 285 285 285 285 284 283 282 282 282 281 280 280 280 279 277 276 275 275 275 274 273 272 271 271 271 271 271 271 270 269 269 268 268 269 269 269 268 267 265 262 260 260 261 261 261 261 262 263 263 262 261 260 260 261 262 262 262 262 261
287 286 286 285 284 284 284 285 284 283 282 281 281 280 280 280 281 280 277 276 276 275 275 275 274 273 272 271 271 271 272 271 271 270 270 269 269 268 268 269 270 270 269 268 266 264 264 264 264 263 262 262 263 263 262 261 261 261 261 261 261 262 262
289 288 287 286 285 284 284 284 284 283 282 282 281 280 279 279 280 280 278 277 276 275 275 275 274 273 272 272 272 272 272 272 271 270 270 269 269 268 268 268 269 270 270 271 270 270 269 268 267 266 265 264 263 264 263 263 263 263 262 261 260 261 261
289 289 288 288 287 286 284 284 284 283 282 282 281 280 279 278 279 279 278 277 276 275 275 274 275 274 273 272 272 272 272 272 272 271 270 269 269 268 268 268 268 269 270 271 271 271 271 270 268 268 267 266 266 265 265 265 265 265 264 264 263 262 262
288 288 288 288 287 287 286 285 284 283 282 281 281 280 279 278 278 278 279 278 277 276 275 274 274 274 274 273 272 272 272 272 272 271 271 270 269 269 268 268 268 268 269 269 269 270 270 270 269 269 268 268 268 268 267 267 267 266 266 266 265 265 264
288 288 288 288 288 287 287 286 285 285 283 282 281 281 279 278 278 279 279 278 278 277 276 275 274 274 274 274 273 273 273 273 272 272 271 270 271 270 269 268 268 267 267 267 267 268 268 269 270 270 269 269 269 269 269 268 268 268 268 267 267 267 267
289 288 288 288 288 288 287 286 286 285 285 284 283 282 281 280 280 280 279 279 279 278 276 275 274 274 274 274 274 274 273 273 273 272 271 272 273 272 270 269 268 267 267 266 266 266 267 268 269 269 270 270 270 269 269 269 269 269 269 268 268 268 268
292 290 289 289 288 288 288 287 286 285 285 284 284 283 282 281 281 281 281 281 281 280 278 275 274 274 274 274 274 274 274 273 273 272 272 273 273 272 271 271 270 269 268 267 266 266 265 266 266 267 268 269 269 270 270 270 270 270 270 269 269 268 268
293 291 290 289 287 287 286 286 286 285 284 283 283 283 283 282 281 281 281 281 282 282 281 279 276 275 274 273 273 273 273 273 272 273 273 274 273 273 273 273 272 270 269 268 267 267 266 266 265 265 266 267 267 268 269 269 270 270 270 270 270 270 269
294 293 291 289 287 286 285 284 284 284 283 282 281 281 281 281 281 281 281 280 281 281 282 281 280 278 276 275 274 273 273 272 272 272 272 272 273 273 273 273 273 273 272 271 269 268 268 267 266 266 266 266 266 267 267 268 268 269 269 270 270 270 270
296 294 293 291 289 287 286 284 283 282 282 281 280 280 279 279 279 280 280 280 280 280 280 281 281 280 279 277 275 274 274 273 273 272 272 272 272 272 273 273 273 274 274 274 273 272 270 270 269 268 267 267 267 267 267 267 267 268 268 268 269 269 270
297 296 295 294 292 290 288 287 285 283 282 281 280 280 280 279 279 280 279 279 279 280 280 280 280 280 280 279 277 276 275 275 275 274 274 273 273 273 273 274 274 274 274 275 275 274 273 272 271 271 270 270 269 268 267 267 267 267 267 268 268 268 269
298 297 296 294 293 292 290 288 287 285 283 281 280 280 279 279 279 279 279 279 279 279 279 280 280 281 281 280 279 278 277 276 276 276 275 275 275 275 275 275 275 275 275 275 275 275 275 274 273 272 271 271 270 270 270 269 268 268 268 268 268 268 268
298 297 295 294 293 292 291 290 289 286 284 282 281 280 278 278 277 277 277 277 277 277 278 278 279 280 280 280 279 279 278 278 277 276 276 275 275 275 275 275 275 275 275 276 276 275 276 275 275 274 273 272 271 271 271 271 270 270 269 269 268 268 268
300 299 298 296 296 294 293 292 291 289 286 285 283 282 280 279 278 277 276 276 275 275 275 276 277 278 278 278 277 277 277 277 277 277 276 276 275 275 275 275 275 275 275 275 275 276 276 276 275 275 275 274 273 272 272 271 271 271 271 270 270 269 269
304 303 301 300 299 298 296 295 294 292 290 289 288 287 285 283 281 280 278 277 277 276 276 276 277 277 277 276 276 276 275 275 275 275 275 275 275 275 274 275 275 275 275 275 275 275 276 276 275 275 275 275 274 274 273 273 272 271 271 270 270 270 269
305 304 303 301 301 300 299 298 297 295 293 292 292 290 289 288 286 284 283 282 280 279 279 279 279 278 278 277 277 276 276 276 275 274 274 274 275 275 274 274 274 274 275 275 276 276 276 276 276 276 276 275 275 274 273 273 273 272 271 270 270 269 269
306 305 304 303 303 302 301 301 300 298 296 295 294 293 292 291 290 289 288 287 285 284 284 283 282 281 280 279 279 278 278 278 277 276 276 275 275 275 276 275 275 274 274 275 276 276 276 276 276 276 276 276 275 275 274 273 273 272 272 271 270 270 269
307 307 306 305 305 304 304 303 302 300 298 297 296 294 294 293 292 292 291 290 289 288 287 286 284 283 282 281 281 280 279 279 279 278 277 277 276 276 276 276 275 275 275 275 275 275 275 276 276 276 276 275 275 275 274 274 273 273 272 272 271 271 270
309 308 307 306 305 305 304 304 303 302 301 300 299 297 296 294 294 294 293 292 290 290 289 288 286 285 284 283 282 281 280 280 279 279 278 278 277 276 276 276 276 275 275 275 275 275 275 275 275 275 275 275 275 275 274 274 274 273 273 272 272 271 271
310 309 308 307 306 305 305 304 304 304 303 302 301 300 298 296 296 296 294 293 291 291 291 289 288 287 286 284 283 282 281 281 280 279 279 278 277 277 276 275 275 275 275 275 274 274 275 275 275 275 275 275 275 275 275 274 274 273 273 272 272 271 271
314 311 310 309 308 306 305 305 305 305 305 304 303 302 299 298 297 297 295 294 293 293 292 291 290 289 287 286 285 284 283 282 281 280 279 279 278 277 277 276 276 275 275 275 275 274 274 274 274 274 274 274 274 274 274 274 274 274 273 272 271 271 270
320 316 314 312 310 307 306 307 307 307 308 307 306 303 301 300 300 298 296 295 294 294 293 292 291 290 289 288 287 286 286 285 284 283 282 281 280 279 278 278 278 278 277 277 276 276 276 275 275 275 275 274 274 274 274 274 273 273 272 272 271 270 269
Height
2972 2970 2969 2968 2968 2967 2966 2966 2965 2965 2964 2964 2963 2963 2962 2962 2961 2960 2960 2960 2960 2959 2959 2958 2958 2958 2958 2958 2958 2957 2957 2957 2957 2958 2958 2959 2959 2959 2959 2959 2959 2959 2959 2960 2960 2961 2961 2963 2964 2964 2965 2966 2967 2967 2969 2970 2972 2973 2974 2975 2977 2978 2980
2967 2966 2965 2964 2963 2962 2961 2961 2960 2960 2959 2958 2958 2957 2957 2957 2956 2955 2955 2954 2954 2954 2954 2953 2953 2952 2952 2952 2952 2952 2952 2952 2951 2952 2953 2953 2953 2953 2953 2953 2953 2953 2954 2954 2955 2955 2956 2957 2958 2958 2959 2960 2961 2962 2963 2964 2966 2967 2968 2969 2970 2972 2973
2964 2962 2961 2960 2959 2958 2957 2956 2955 2955 2954 2954 2953 2952 2952 2952 2951 2951 2950 2950 2949 2949 2949 2949 2948 2948 2947 2946 2947 2948 2948 2947 2946 2946 2946 2947 2948 2948 2948 2948 2948 2948 2949 2949 2949 2950 2950 2951 2952 2952 2953 2955 2955 2956 2958 2958 2959 2961 2962 2963 2964 2965 2967
2960 2959 2957 2956 2955 2954 2953 2952 2951 2950 2950 2949 2949 2948 2948 2947 2947 2946 2946 2945 2945 2944 2944 2944 2944 2944 2943 2942 2942 2943 2943 2942 2941 2941 2941 2941 2942 2942 2942 2943 2943 2943 2943 2943 2944 2945 2945 2945 2947 2947 2948 2949 2950 2951 2952 2953 2954 2955 2956 2957 2958 2959 2960
2957 2955 2954 2953 2951 2950 2949 2948 2947 2946 2946 2945 2944 2944 2943 2943 2943 2942 2941 2941 2940 2940 2940 2939 2939 2939 2939 2939 2939 2939 2939 2939 2938 2937 2936 2936 2937 2937 2937 2937 2938 2938 2939 2939 2939 2939 2940 2940 2941 2942 2943 2944 2945 2946 2947 2948 2948 2949 2950 2951 2952 2953 2955
2953 2951 2950 2949 2948 2946 2945 2944 2943 2943 2942 2941 2940 2940 2939 2939 2938 2938 2937 2936 2936 2936 2935 2935 2935 2935 2935 2935 2935 2935 2935 2935 2935 2934 2933 2933 2932 2932 2932 2932 2933 2933 2934 2934 2934 2934 2935 2935 2936 2937 2938 2939 2940 2941 2942 2943 2943 2944 2945 2945 2946 2948 2949
2949 2948 2946 2945 2944 2942 2941 2940 2939 2938 2938 2937 2936 2936 2935 2935 2934 2933 2933 2932 2932 2931 2931 2930 2930 2930 2930 2930 2930 2930 2930 2931 2931 2931 2930 2930 2929 2928 2927 2927 2928 2928 2929 2929 2929 2930 2931 2931 2932 2933 2934 2934 2935 2936 2937 2938 2938 2938 2939 2940 2941 2942 2944
2945 2944 2943 2941 2940 2938 2937 2936 2935 2934 2933 2932 2932 2932 2932 2931 2930 2929 2929 2928 2927 2927 2926 2926 2925 2925 2925 2925 2926 2925 2925 2926 2926 2927 2926 2926 2925 2924 2923 2923 2923 2924 2924 2924 2924 2925 2926 2926 2927 2928 2929 2930 2931 2931 2932 2933 2933 2933 2934 2935 2936 2937 2938
2941 2940 2939 2937 2936 2934 2933 2931 2930 2929 2928 2927 2927 2927 2927 2927 2926 2925 2924 2924 2923 2922 2922 2921 2921 2921 2921 2921 2921 2921 2921 2921 2921 2921 2921 2921 2920 2920 2919 2919 2919 2919 2919 2919 2919 2920 2921 2922 2922 2923 2924 2925 2926 2927 2927 2928 2928 2929 2930 2930 2930 2931 2933
2937 2936 2934 2933 2932 2930 2929 2927 2925 2924 2923 2921 2920 2921 2922 2922 2922 2921 2920 2919 2919 2918 2917 2917 2916 2916 2915 2915 2916 2916 2916 2916 2916 2916 2916 2916 2915 2915 2915 2915 2915 2915 2914 2914 2914 2915 2916 2917 2917 2917 2918 2920 2920 2921 2922 2922 2923 2924 2925 2926 2926 2926 2928
2933 2931 2930 2928 2927 2926 2924 2922 2921 2919 2918 2917 2914 2913 2915 2917 2917 2916 2916 2915 2914 2913 2912 2912 2911 2911 2910 2910 2910 2910 2911 2911 2910 2911 2911 2911 2910 2910 2910 2910 2910 2910 2910 2910 2910 2910 2911 2911 2911 2912 2913 2914 2915 2916 2916 2917 2918 2919 2919 2921 2922 2922 2923
2928 2926 2925 2923 2922 2920 2919 2918 2916 2914 2913 2912 2910 2907 2906 2909 2912 2911 2911 2910 2909 2908 2907 2907 2906 2906 2905 2905 2905 2905 2905 2905 2905 2905 2905 2905 2905 2905 2905 2905 2905 2905 2905 2905 2905 2905 2905 2906 2907 2907 2907 2908 2909 2910 2911 2911 2912 2913 2914 2915 2916 2918 2918
2922 2920 2919 2918 2916 2915 2913 2912 2910 2909 2907 2906 2905 2902 2898 2901 2905 2906 2905 2904 2903 2902 2902 2901 2901 2901 2900 2899 2899 2899 2899 2899 2899 2899 2899 2900 2900 2900 2899 2899 2899 2899 2900 2900 2900 2900 2900 2901 2902 2902 2902 2902 2903 2904 2905 2906 2906 2907 2907 2909 2910 2911 2913
2915 2914 2913 2912 2910 2909 2907 2906 2904 2903 2902 2900 2900 2897 2892 2893 2898 2899 2898 2898 2898 2897 2896 2895 2895 2895 2895 2894 2893 2892 2893 2893 2893 2893 2893 2894 2895 2894 2894 2894 2894 2894 2894 2894 2895 2895 2895 2895 2896 2897 2897 2897 2897 2898 2899 2900 2901 2901 2901 2902 2903 2905 2906
2909 2908 2907 2905 2904 2903 2902 2900 2898 2897 2895 2894 2893 2891 2887 2887 2890 2892 2892 2892 2892 2891 2890 2889 2889 2889 2889 2888 2887 2887 2886 2886 2886 2886 2887 2887 2888 2888 2888 2888 2888 2888 2888 2888 2889 2890 2890 2890 2890 2891 2891 2892 2892 2892 2893 2894 2895 2896 2896 2896 2897 2899 2900
2902 2901 2900 2898 2897 2896 2896 2894 2892 2890 2889 2888 2886 2884 2882 2881 2882 2883 2885 2886 2885 2884 2884 2883 2882 2882 2882 2882 2881 2881 2880 2879 2879 2880 2880 2880 2881 2882 2882 2882 2882 2882 2882 2882 2882 2883 2883 2884 2884 2884 2884 2885 2885 2886 2887 2888 2889 2890 2890 2890 2891 2892 2894
2895 2893 2892 2891 2890 2889 2888 2888 2886 2884 2882 2881 2879 2878 2876 2875 2875 2875 2877 2878 2879 2878 2877 2876 2875 2875 2875 2876 2875 2874 2873 2873 2872 2872 2873 2874 2874 2875 2876 2876 2877 2877 2876 2876 2876 2876 2876 2876 2877 2878 2878 2878 2878 2879 2880 2881 2882 2883 2884 2884 2884 2885 2887
2888 2887 2885 2884 2883 2881 2881 2880 2879 2878 2876 2874 2873 2871 2869 2868 2868 2868 2869 2870 2872 2872 2870 2870 2869 2867 2867 2868 2869 2868 2867 2866 2865 2865 2865 2866 2867 2868 2869 2870 2871 2871 2870 2870 2869 2869 2868 2869 2869 2870 2871 2871 2871 2872 2873 2873 2874 2875 2876 2877 2878 2878 2879
2881 2880 2878 2877 2876 2874 2873 2873 2872 2871 2869 2867 2866 2864 2862 2862 2861 2861 2860 2862 2864 2865 2864 2863 2862 2861 2860 2860 2861 2861 2860 2859 2858 2857 2857 2858 2860 2860 2861 2863 2864 2863 2863 2863 2863 2862 2862 2862 2862 2862 2862 2863 2864 2864 2865 2866 2866 2867 2868 2869 2870 2871 2871
2874 2873 2872 2871 2869 2868 2867 2866 2865 2864 2863 2861 2859 2857 2856 2855 2855 2854 2853 2853 2855 2858 2858 2857 2855 2855 2854 2853 2853 2854 2853 2853 2851 2849 2849 2851 2852 2851 2852 2854 2856 2855 2855 2855 2856 2856 2855 2855 2855 2854 2854 2855 2855 2856 2857 2858 2858 2859 2859 2861 2862 2863 2864
2869 2867 2866 2865 2864 2862 2861 2859 2858 2858 2857 2855 2853 2851 2850 2849 2848 2847 2846 2846 2847 2848 2850 2850 2850 2849 2848 2847 2847 2847 2847 2846 2845 2843 2843 2844 2843 2842 2843 2845 2846 2847 2847 2847 2848 2848 2849 2849 2848 2847 2847 2847 2847 2848 2849 2849 2849 2850 2851 2852 2853 2854 2855
2863 2862 2861 2860 2858 2857 2855 2854 2852 2851 2850 2850 2848 2846 2844 2843 2842 2841 2839 2839 2839 2839 2841 2842 2843 2843 2842 2841 2840 2840 2840 2839 2839 2838 2837 2837 2835 2835 2836 2836 2836 2837 2838 2839 2840 2840 2841 2841 2840 2840 2840 2840 2840 2840 2841 2840 2840 2841 2842 2842 2843 2844 2845
2857 2856 2855 2854 2853 2851 2850 2849 2847 2846 2844 2843 2843 2841 2839 2837 2836 2835 2834 2833 2832 2831 2832 2833 2835 2835 2835 2834 2833 2833 2833 2833 2833 2832 2831 2830 2829 2828 2828 2828 2827 2827 2828 2830 2831 2832 2832 2832 2832 2832 2832 2832 2833 2833 2833 2832 2832 2833 2833 2834 2834 2835 2835
2852 2850 2849 2848 2847 2846 2844 2843 2842 2840 2839 2837 2836 2835 2834 2832 2831 2830 2828 2827 2826 2825 2825 2825 2827 2828 2828 2827 2827 2826 2826 2826 2826 2825 2825 2824 2823 2822 2822 2821 2821 2820 2820 2820 2822 2823 2824 2824 2824 2824 2824 2825 2825 2825 2825 2825 2825 2825 2825 2826 2826 2827 2827
2846 2844 2843 2842 2841 2840 2839 2837 2836 2835 2833 2832 2831 2830 2828 2827 2826 2824 2823 2822 2820 2819 2818 2818 2819 2820 2820 2820 2820 2819 2819 2819 2818 2818 2818 2818 2817 2816 2815 2815 2814 2813 2813 2813 2813 2813 2814 2816 2816 2816 2816 2816 2817 2817 2817 2817 2817 2818 2818 2818 2819 2819 2820
2840 2839 2837 2836 2835 2834 2833 2832 2830 2829 2827 2826 2825 2825 2823 2822 2821 2820 2818 2817 2815 2814 2813 2812 2812 2812 2812 2813 2813 2812 2812 2812 2812 2811 2811 2811 2810 2810 2809 2808 2807 2807 2806 2806 2806 2806 2806 2807 2807 2808 2808 2808 2808 2809 2809 2809 2809 2810 2810 2810 2811 2811 2812
2835 2833 2832 2830 2829 2828 2827 2826 2825 2823 2821 2820 2819 2819 2818 2817 2816 2814 2813 2812 2810 2809 2808 2807 2807 2806 2806 2805 2805 2805 2805 2805 2805 2805 2804 2804 2804 2803 2802 2802 2801 2800 2800 2799 2799 2799 2799 2799 2799 2800 2800 2800 2800 2801 2801 2800 2801 2802 2802 2802 2803 2803 2804
2830 2828 2826 2824 2824 2822 2821 2821 2819 2817 2815 2814 2813 2812 2811 2811 2810 2809 2807 2806 2805 2803 2802 2802 2802 2801 2800 2799 2799 2799 2799 2799 2798 2798 2797 2797 2797 2796 2796 2795 2795 2794 2793 2793 2792 2792 2792 2792 2792 2792 2792 2792 2793 2793 2793 2793 2793 2793 2794 2794 2794 2795 2796
2824 2822 2820 2819 2818 2816 2815 2815 2814 2812 2809 2808 2806 2805 2804 2804 2803 2802 2801 2800 2798 2797 2797 2796 2796 2796 2795 2794 2793 2792 2792 2792 2792 2791 2791 2790 2790 2790 2789 2789 2788 2787 2787 2786 2786 2786 2785 2785 2785 2785 2785 2785 2786 2786 2786 2786 2786 2786 2786 2786 2787 2788 2788
2819 2817 2815 2813 2812 2811 2809 2809 2808 2807 2804 2802 2801 2799 2798 2797 2796 2795 2794 2793 2792 2791 2790 2790 2790 2789 2788 2787 2786 2786 2785 2785 2785 2784 2784 2783 2783 2782 2782 2781 2781 2781 2780 2779 2779 2779 2778 2778 2778 2778 2778 2778 2779 2779 2779 2779 2779 2779 2779 2779 2780 2781 2781
2814 2813 2810 2808 2806 2805 2804 2803 2802 2801 2799 2797 2795 2794 2792 2791 2790 2789 2788 2787 2786 2785 2785 2784 2783 2782 2782 2781 2780 2779 2778 2777 2777 2777 2777 2776 2776 2775 2775 2774 2774 2773 2773 2773 2772 2771 2771 2771 2770 2770 2770 2770 2771 2771 2772 2772 2772 2771 2772 2772 2772 2773 2774
2810 2808 2806 2804 2802 2800 2799 2798 2797 2795 2794 2792 2791 2789 2787 2786 2785 2784 2783 2781 2780 2779 2779 2778 2777 2776 2776 2775 2774 2773 2772 2771 2770 2770 2770 2769 2769 2769 2768 2767 2767 2766 2766 2766 2765 2765 2764 2764 2764 2763 2763 2763 2763 2764 2764 2764 2765 2765 2764 2765 2765 2766 2766
2807 2804 2802 2801 2798 2796 2794 2793 2792 2790 2789 2787 2786 2784 2783 2781 2780 2779 2778 2776 2774 2773 2773 2772 2771 2770 2770 2769 2768 2767 2766 2765 2764 2764 2763 2763 2763 2762 2762 2761 2760 2760 2760 2760 2759 2759 2758 2758 2757 2757 2756 2756 2756 2756 2757 2757 2757 2758 2758 2758 2758 2758 2759
2804 2801 2799 2797 2795 2792 2790 2788 2787 2786 2784 2782 2781 2779 2777 2776 2775 2775 2773 2770 2768 2767 2767 2766 2765 2764 2763 2763 2762 2761 2760 2759 2759 2758 2757 2757 2756 2756 2756 2755 2754 2754 2754 2754 2753 2753 2752 2752 2752 2751 2750 2750 2750 2750 2750 2750 2751 2751 2751 2751 2752 2752 2752
2802 2799 2796 2793 2791 2789 2786 2784 2782 2781 2780 2778 2776 2774 2772 2771 2770 2769 2768 2765 2763 2762 2761 2760 2759 2758 2757 2756 2756 2755 2754 2753 2753 2752 2751 2751 2750 2750 2749 2749 2748 2748 2748 2747 2747 2747 2747 2746 2746 2745 2745 2744 2744 2745 2745 2745 2745 2745 2745 2745 2745 2746 2746
2798 2796 2793 2790 2788 2785 2782 2781 2779 2777 2775 2774 2772 2769 2767 2765 2765 2764 2763 2761 2759 2757 2755 2754 2753 2753 2752 2751 2750 2749 2749 2748 2747 2746 2745 2745 2744 2744 2743 2743 2743 2742 2742 2742 2741 2741 2741 2740 2740 2739 2739 2738 2739 2739 2739 2739 2739 2739 2739 2739 2739 2740 2740